Location: Le Vaud
(46.4779°N, 6.2346°E)
Time: 05:51:50
(UTC+00:00)

SL-16 R/B - Pass Details

Date: 18 February 2020
Orbit: 843 x 847 km, 71.0° (Epoch: 31 March)

Event Time Altitude Azimuth Distance (km) Brightness Sun altitude
Exits shadow 04:28:44 49° 275° (W) 1,085 2.3 -22.3°
Maximum altitude 04:29:29 52° 302° (WNW) 1,041 2.3 -22.2°
Drops below altitude 10° 04:35:03 10° 19° (NNE) 2,476 4.9 -21.3°
Sets 04:37:34 0° 24° (NNE) 3,414 5.8 -20.8°
